Time,TemperatureF,DewpointF,PressureIn,WindDirection,WindDirectionDegrees,WindSpeedMPH,WindSpeedGustMPH,Humidity,HourlyPrecipIn,Conditions,Clouds,dailyrainin,SoftwareType,DateUTC
2013-09-13 00:00:00,82.8,68.9,29.92,ENE,75,0.0,0.0,63,0.00,,,0.00,Wunderground v.1.15,2013-09-13 05:00:00,
2013-09-13 00:10:00,83.0,68.6,29.92,East,86,2.0,2.0,62,0.00,,,0.00,Wunderground v.1.15,2013-09-13 05:10:00,
2013-09-13 00:15:00,83.2,68.3,29.92,ESE,111,3.0,4.0,61,0.00,,,0.00,Wunderground v.1.15,2013-09-13 05:15:00,
2013-09-13 00:25:00,83.6,67.8,29.92,ESE,103,2.0,3.0,59,0.00,,,0.00,Wunderground v.1.15,2013-09-13 05:25:00,
2013-09-13 00:30:00,83.6,67.8,29.92,ESE,103,1.0,1.0,59,0.00,,,0.00,Wunderground v.1.15,2013-09-13 05:30:00,
2013-09-13 00:35:00,83.7,67.8,29.92,ESE,103,0.0,1.0,59,0.00,,,0.00,Wunderground v.1.15,2013-09-13 05:35:00,
2013-09-13 00:40:00,83.7,67.8,29.92,ESE,103,0.0,0.0,59,0.00,,,0.00,Wunderground v.1.15,2013-09-13 05:40:00,
2013-09-13 00:45:00,83.6,67.8,29.92,ESE,103,0.0,0.0,59,0.00,,,0.00,Wunderground v.1.15,2013-09-13 05:45:00,
2013-09-13 00:55:00,83.3,68.0,29.92,ESE,103,0.0,0.0,60,0.00,,,0.00,Wunderground v.1.15,2013-09-13 05:55:00,
2013-09-13 01:00:00,83.0,67.7,29.92,ESE,103,0.0,0.0,60,0.00,,,0.00,Wunderground v.1.15,2013-09-13 06:00:00,
2013-09-13 01:10:00,82.4,68.1,29.91,ESE,103,0.0,0.0,62,0.00,,,0.00,Wunderground v.1.15,2013-09-13 06:10:00,
2013-09-13 01:15:00,82.1,67.8,29.91,ESE,103,0.0,0.0,62,0.00,,,0.00,Wunderground v.1.15,2013-09-13 06:15:00,
2013-09-13 01:20:00,81.9,68.5,29.92,ESE,103,0.0,0.0,64,0.00,,,0.00,Wunderground v.1.15,2013-09-13 06:20:00,
2013-09-13 01:25:00,81.7,68.3,29.92,ESE,103,0.0,0.0,64,0.00,,,0.00,Wunderground v.1.15,2013-09-13 06:25:00,
2013-09-13 01:35:00,81.2,67.9,29.91,ESE,103,0.0,0.0,64,0.00,,,0.00,Wunderground v.1.15,2013-09-13 06:35:00,
2013-09-13 01:40:00,81.1,68.2,29.91,ESE,103,0.0,0.0,65,0.00,,,0.00,Wunderground v.1.15,2013-09-13 06:40:00,
2013-09-13 01:45:00,80.8,67.9,29.91,ESE,103,0.0,0.0,65,0.00,,,0.00,Wunderground v.1.15,2013-09-13 06:45:00,
2013-09-13 01:50:00,80.6,68.2,29.91,ESE,103,0.0,0.0,66,0.00,,,0.00,Wunderground v.1.15,2013-09-13 06:50:00,
2013-09-13 01:55:00,80.4,68.4,29.91,ESE,103,0.0,0.0,67,0.00,,,0.00,Wunderground v.1.15,2013-09-13 06:55:00,
2013-09-13 02:00:00,80.2,68.2,29.91,ESE,103,0.0,0.0,67,0.00,,,0.00,Wunderground v.1.15,2013-09-13 07:00:00,
2013-09-13 02:10:00,79.8,68.3,29.91,ESE,103,0.0,0.0,68,0.00,,,0.00,Wunderground v.1.15,2013-09-13 07:10:00,
2013-09-13 02:20:00,79.4,68.3,29.91,ESE,103,0.0,0.0,69,0.00,,,0.00,Wunderground v.1.15,2013-09-13 07:20:00,
2013-09-13 02:25:00,79.2,68.1,29.91,ESE,103,0.0,0.0,69,0.00,,,0.00,Wunderground v.1.15,2013-09-13 07:25:00,
2013-09-13 02:30:00,79.0,68.0,29.91,ESE,103,0.0,0.0,69,0.00,,,0.00,Wunderground v.1.15,2013-09-13 07:30:00,
2013-09-13 02:35:00,78.8,67.8,29.91,ESE,103,0.0,0.0,69,0.00,,,0.00,Wunderground v.1.15,2013-09-13 07:35:00,
2013-09-13 02:40:00,78.7,68.1,29.91,ESE,103,0.0,0.0,70,0.00,,,0.00,Wunderground v.1.15,2013-09-13 07:40:00,
2013-09-13 02:50:00,78.3,68.1,29.90,ESE,103,0.0,0.0,71,0.00,,,0.00,Wunderground v.1.15,2013-09-13 07:50:00,
2013-09-13 02:55:00,78.2,68.0,29.90,ESE,103,0.0,0.0,71,0.00,,,0.00,Wunderground v.1.15,2013-09-13 07:55:00,
2013-09-13 03:00:00,78.0,67.8,29.90,ESE,103,0.0,0.0,71,0.00,,,0.00,Wunderground v.1.15,2013-09-13 08:00:00,
2013-09-13 03:10:00,77.8,67.6,29.90,ESE,103,0.0,0.0,71,0.00,,,0.00,Wunderground v.1.15,2013-09-13 08:10:00,
2013-09-13 03:15:00,77.8,68.0,29.90,ESE,103,0.0,0.0,72,0.00,,,0.00,Wunderground v.1.15,2013-09-13 08:15:00,
2013-09-13 03:20:00,77.7,68.0,29.90,ESE,103,0.0,0.0,72,0.00,,,0.00,Wunderground v.1.15,2013-09-13 08:20:00,
2013-09-13 03:30:00,77.5,67.8,29.90,ESE,103,0.0,0.0,72,0.00,,,0.00,Wunderground v.1.15,2013-09-13 08:30:00,
2013-09-13 03:35:00,77.5,67.8,29.90,ESE,103,0.0,0.0,72,0.00,,,0.00,Wunderground v.1.15,2013-09-13 08:35:00,
2013-09-13 03:40:00,77.4,68.1,29.90,ESE,103,0.0,0.0,73,0.00,,,0.00,Wunderground v.1.15,2013-09-13 08:40:00,
2013-09-13 03:45:00,77.3,68.0,29.90,ESE,103,0.0,0.0,73,0.00,,,0.00,Wunderground v.1.15,2013-09-13 08:45:00,
2013-09-13 03:50:00,77.1,67.8,29.90,ESE,103,0.0,0.0,73,0.00,,,0.00,Wunderground v.1.15,2013-09-13 08:50:00,
2013-09-13 04:00:00,76.9,68.0,29.90,ESE,103,0.0,0.0,74,0.00,,,0.00,Wunderground v.1.15,2013-09-13 09:00:00,
2013-09-13 04:10:00,76.6,68.1,29.90,ESE,103,0.0,0.0,75,0.00,,,0.00,Wunderground v.1.15,2013-09-13 09:10:00,
2013-09-13 04:15:00,76.5,68.4,29.90,ESE,103,0.0,0.0,76,0.00,,,0.00,Wunderground v.1.15,2013-09-13 09:15:00,
2013-09-13 04:20:00,76.4,68.3,29.90,ESE,103,0.0,0.0,76,0.00,,,0.00,Wunderground v.1.15,2013-09-13 09:20:00,
2013-09-13 04:25:00,76.3,68.2,29.90,ESE,103,0.0,0.0,76,0.00,,,0.00,Wunderground v.1.15,2013-09-13 09:25:00,
2013-09-13 04:30:00,76.2,68.5,29.90,ESE,103,0.0,0.0,77,0.00,,,0.00,Wunderground v.1.15,2013-09-13 09:30:00,
2013-09-13 04:35:00,76.2,68.5,29.90,ESE,103,0.0,0.0,77,0.00,,,0.00,Wunderground v.1.15,2013-09-13 09:35:00,
2013-09-13 04:45:00,76.1,68.4,29.90,ESE,103,0.0,0.0,77,0.00,,,0.00,Wunderground v.1.15,2013-09-13 09:45:00,
2013-09-13 04:50:00,76.1,68.4,29.90,ESE,103,0.0,0.0,77,0.00,,,0.00,Wunderground v.1.15,2013-09-13 09:50:00,
2013-09-13 04:55:00,76.0,68.6,29.90,ESE,103,0.0,0.0,78,0.00,,,0.00,Wunderground v.1.15,2013-09-13 09:55:00,
2013-09-13 05:00:00,75.9,68.5,29.90,ESE,103,0.0,0.0,78,0.00,,,0.00,Wunderground v.1.15,2013-09-13 10:00:00,
2013-09-13 05:10:00,75.7,68.7,29.90,ESE,103,0.0,0.0,79,0.00,,,0.00,Wunderground v.1.15,2013-09-13 10:10:00,
2013-09-13 05:15:00,75.7,68.7,29.90,ESE,103,0.0,0.0,79,0.00,,,0.00,Wunderground v.1.15,2013-09-13 10:15:00,
2013-09-13 05:20:00,75.6,68.6,29.90,ESE,103,0.0,0.0,79,0.00,,,0.00,Wunderground v.1.15,2013-09-13 10:20:00,
2013-09-13 05:25:00,75.5,68.5,29.90,ESE,103,0.0,0.0,79,0.00,,,0.00,Wunderground v.1.15,2013-09-13 10:25:00,
2013-09-13 05:35:00,75.3,68.7,29.90,ESE,103,0.0,0.0,80,0.00,,,0.00,Wunderground v.1.15,2013-09-13 10:35:00,
2013-09-13 05:40:00,75.2,68.6,29.90,ESE,103,0.0,0.0,80,0.00,,,0.00,Wunderground v.1.15,2013-09-13 10:40:00,
2013-09-13 05:45:00,75.0,68.4,29.90,ESE,103,0.0,0.0,80,0.00,,,0.00,Wunderground v.1.15,2013-09-13 10:45:00,
2013-09-13 05:55:00,74.8,68.9,29.90,ESE,103,0.0,0.0,82,0.00,,,0.00,Wunderground v.1.15,2013-09-13 10:55:00,
2013-09-13 06:00:00,74.8,68.9,29.90,ESE,103,0.0,0.0,82,0.00,,,0.00,Wunderground v.1.15,2013-09-13 11:00:00,
2013-09-13 06:10:00,74.6,68.7,29.90,ESE,103,0.0,0.0,82,0.00,,,0.00,Wunderground v.1.15,2013-09-13 11:10:00,
2013-09-13 06:15:00,74.5,68.6,29.90,ESE,103,0.0,0.0,82,0.00,,,0.00,Wunderground v.1.15,2013-09-13 11:15:00,
2013-09-13 06:20:00,74.4,68.5,29.90,ESE,103,0.0,0.0,82,0.00,,,0.00,Wunderground v.1.15,2013-09-13 11:20:00,
2013-09-13 06:25:00,74.4,68.5,29.90,ESE,103,0.0,0.0,82,0.00,,,0.00,Wunderground v.1.15,2013-09-13 11:25:00,
2013-09-13 06:30:00,74.3,68.8,29.90,ESE,103,0.0,0.0,83,0.00,,,0.00,Wunderground v.1.15,2013-09-13 11:30:00,
2013-09-13 06:40:00,74.3,68.8,29.90,ESE,103,0.0,0.0,83,0.00,,,0.00,Wunderground v.1.15,2013-09-13 11:40:00,
2013-09-13 06:45:00,74.2,68.7,29.90,ESE,103,0.0,0.0,83,0.00,,,0.00,Wunderground v.1.15,2013-09-13 11:45:00,
2013-09-13 06:50:00,74.1,68.6,29.90,ESE,103,0.0,0.0,83,0.00,,,0.00,Wunderground v.1.15,2013-09-13 11:50:00,
2013-09-13 06:55:00,74.2,68.7,29.90,ESE,103,0.0,0.0,83,0.00,,,0.00,Wunderground v.1.15,2013-09-13 11:55:00,
2013-09-13 07:00:00,74.3,68.8,29.91,ESE,103,0.0,0.0,83,0.00,,,0.00,Wunderground v.1.15,2013-09-13 12:00:00,
2013-09-13 07:10:00,74.5,68.6,29.91,ESE,103,0.0,0.0,82,0.00,,,0.00,Wunderground v.1.15,2013-09-13 12:10:00,
2013-09-13 07:15:00,74.7,68.8,29.91,ESE,103,0.0,0.0,82,0.00,,,0.00,Wunderground v.1.15,2013-09-13 12:15:00,
2013-09-13 07:20:00,74.9,69.0,29.91,ESE,103,0.0,0.0,82,0.00,,,0.00,Wunderground v.1.15,2013-09-13 12:20:00,
2013-09-13 07:30:00,75.0,69.1,29.91,ESE,103,0.0,0.0,82,0.00,,,0.00,Wunderground v.1.15,2013-09-13 12:30:00,
2013-09-13 07:35:00,75.2,69.3,29.91,ESE,103,0.0,0.0,82,0.00,,,0.00,Wunderground v.1.15,2013-09-13 12:35:00,
2013-09-13 07:40:00,75.3,69.4,29.91,ESE,103,0.0,0.0,82,0.00,,,0.00,Wunderground v.1.15,2013-09-13 12:40:00,
2013-09-13 07:45:00,75.5,69.3,29.91,ESE,103,0.0,0.0,81,0.00,,,0.00,Wunderground v.1.15,2013-09-13 12:45:00,
2013-09-13 07:50:00,75.8,69.6,29.91,ESE,103,0.0,0.0,81,0.00,,,0.00,Wunderground v.1.15,2013-09-13 12:50:00,
2013-09-13 08:00:00,76.2,69.9,29.91,ESE,103,0.0,0.0,81,0.00,,,0.00,Wunderground v.1.15,2013-09-13 13:00:00,
2013-09-13 08:10:00,76.8,69.8,29.92,ESE,103,1.0,1.0,79,0.00,,,0.00,Wunderground v.1.15,2013-09-13 13:10:00,
2013-09-13 08:15:00,77.3,69.9,29.91,East,86,1.0,1.0,78,0.00,,,0.00,Wunderground v.1.15,2013-09-13 13:15:00,
2013-09-13 08:20:00,77.8,70.4,29.91,East,86,1.0,1.0,78,0.00,,,0.00,Wunderground v.1.15,2013-09-13 13:20:00,
2013-09-13 08:25:00,78.1,70.3,29.92,East,86,0.0,1.0,77,0.00,,,0.00,Wunderground v.1.15,2013-09-13 13:25:00,
2013-09-13 08:30:00,78.5,70.7,29.91,East,86,0.0,0.0,77,0.00,,,0.00,Wunderground v.1.15,2013-09-13 13:30:00,
2013-09-13 08:40:00,79.2,71.0,29.91,East,86,0.0,0.0,76,0.00,,,0.00,Wunderground v.1.15,2013-09-13 13:40:00,
2013-09-13 08:45:00,79.6,71.0,29.92,East,86,0.0,0.0,75,0.00,,,0.00,Wunderground v.1.15,2013-09-13 13:45:00,
2013-09-13 08:50:00,79.9,71.3,29.92,East,86,0.0,0.0,75,0.00,,,0.00,Wunderground v.1.15,2013-09-13 13:50:00,
2013-09-13 08:55:00,80.3,71.3,29.92,East,86,0.0,3.0,74,0.00,,,0.00,Wunderground v.1.15,2013-09-13 13:55:00,
2013-09-13 09:00:00,80.7,71.2,29.92,East,86,0.0,0.0,73,0.00,,,0.00,Wunderground v.1.15,2013-09-13 14:00:00,
2013-09-13 09:10:00,81.5,71.6,29.92,East,86,0.0,0.0,72,0.00,,,0.00,Wunderground v.1.15,2013-09-13 14:10:00,
2013-09-13 09:15:00,81.9,72.0,29.92,East,86,0.0,0.0,72,0.00,,,0.00,Wunderground v.1.15,2013-09-13 14:15:00,
2013-09-13 09:25:00,82.4,72.0,29.92,East,86,0.0,0.0,71,0.00,,,0.00,Wunderground v.1.15,2013-09-13 14:25:00,
2013-09-13 09:30:00,82.7,71.9,29.92,East,86,0.0,0.0,70,0.00,,,0.00,Wunderground v.1.15,2013-09-13 14:30:00,
2013-09-13 09:35:00,83.0,72.2,29.92,East,86,0.0,0.0,70,0.00,,,0.00,Wunderground v.1.15,2013-09-13 14:35:00,
2013-09-13 09:40:00,83.4,72.2,29.92,East,86,0.0,0.0,69,0.00,,,0.00,Wunderground v.1.15,2013-09-13 14:40:00,
2013-09-13 09:45:00,83.6,71.9,29.92,East,86,0.0,0.0,68,0.00,,,0.00,Wunderground v.1.15,2013-09-13 14:45:00,
2013-09-13 09:55:00,84.2,72.5,29.92,East,86,0.0,0.0,68,0.00,,,0.00,Wunderground v.1.15,2013-09-13 14:55:00,
2013-09-13 10:00:00,84.2,71.6,29.92,East,86,0.0,0.0,66,0.00,,,0.00,Wunderground v.1.15,2013-09-13 15:00:00,
2013-09-13 10:10:00,85.0,71.5,29.93,East,86,0.0,0.0,64,0.00,,,0.00,Wunderground v.1.15,2013-09-13 15:10:00,
2013-09-13 10:15:00,85.3,72.2,29.93,East,86,0.0,0.0,65,0.00,,,0.00,Wunderground v.1.15,2013-09-13 15:15:00,
2013-09-13 10:20:00,85.5,71.5,29.93,East,86,0.0,0.0,63,0.00,,,0.00,Wunderground v.1.15,2013-09-13 15:20:00,
2013-09-13 10:25:00,85.8,71.7,29.92,East,86,0.0,0.0,63,0.00,,,0.00,Wunderground v.1.15,2013-09-13 15:25:00,
2013-09-13 10:35:00,86.3,71.3,29.93,East,86,0.0,0.0,61,0.00,,,0.00,Wunderground v.1.15,2013-09-13 15:35:00,
2013-09-13 10:40:00,87.4,71.8,29.93,East,86,0.0,0.0,60,0.00,,,0.00,Wunderground v.1.15,2013-09-13 15:40:00,
2013-09-13 10:45:00,87.7,71.1,29.93,East,85,0.0,0.0,58,0.00,,,0.00,Wunderground v.1.15,2013-09-13 15:45:00,
2013-09-13 10:50:00,87.9,72.3,29.92,East,85,0.0,0.0,60,0.00,,,0.00,Wunderground v.1.15,2013-09-13 15:50:00,
2013-09-13 10:55:00,88.4,71.2,29.92,East,84,0.0,0.0,57,0.00,,,0.00,Wunderground v.1.15,2013-09-13 15:55:00,
2013-09-13 11:00:00,88.8,72.6,29.92,East,84,0.0,0.0,59,0.00,,,0.00,Wunderground v.1.15,2013-09-13 16:00:00,
2013-09-13 11:10:00,89.2,71.5,29.92,East,84,0.0,0.0,56,0.00,,,0.00,Wunderground v.1.15,2013-09-13 16:10:00,
2013-09-13 11:20:00,89.9,70.5,29.92,East,80,0.0,1.0,53,0.00,,,0.00,Wunderground v.1.15,2013-09-13 16:20:00,
2013-09-13 11:25:00,90.4,72.0,29.92,East,79,0.0,1.0,55,0.00,,,0.00,Wunderground v.1.15,2013-09-13 16:25:00,
2013-09-13 11:30:00,90.5,71.0,29.92,East,79,0.0,0.0,53,0.00,,,0.00,Wunderground v.1.15,2013-09-13 16:30:00,
2013-09-13 11:35:00,90.7,70.1,29.91,NNE,30,1.0,1.0,51,0.00,,,0.00,Wunderground v.1.15,2013-09-13 16:35:00,
2013-09-13 11:40:00,91.3,70.6,29.91,NNE,30,1.0,1.0,51,0.00,,,0.00,Wunderground v.1.15,2013-09-13 16:40:00,
2013-09-13 11:50:00,91.9,71.2,29.91,NNE,25,0.0,0.0,51,0.00,,,0.00,Wunderground v.1.15,2013-09-13 16:50:00,
2013-09-13 11:55:00,91.8,69.9,29.91,North,9,1.0,3.0,49,0.00,,,0.00,Wunderground v.1.15,2013-09-13 16:55:00,
2013-09-13 12:00:00,91.6,69.1,29.91,NE,39,2.0,2.0,48,0.00,,,0.00,Wunderground v.1.15,2013-09-13 17:00:00,
2013-09-13 12:10:00,92.4,69.2,29.91,NE,50,1.0,1.0,47,0.00,,,0.00,Wunderground v.1.15,2013-09-13 17:10:00,
2013-09-13 12:15:00,92.7,68.9,29.91,NE,42,2.0,3.0,46,0.00,,,0.00,Wunderground v.1.15,2013-09-13 17:15:00,
2013-09-13 12:20:00,92.6,68.8,29.91,NE,37,2.0,2.0,46,0.00,,,0.00,Wunderground v.1.15,2013-09-13 17:20:00,
2013-09-13 12:25:00,92.6,70.0,29.91,NE,37,1.0,2.0,48,0.00,,,0.00,Wunderground v.1.15,2013-09-13 17:25:00,
2013-09-13 12:35:00,93.0,69.8,29.91,NE,38,0.0,1.0,47,0.00,,,0.00,Wunderground v.1.15,2013-09-13 17:35:00,
2013-09-13 12:40:00,93.0,69.2,29.90,NE,35,1.0,1.0,46,0.00,,,0.00,Wunderground v.1.15,2013-09-13 17:40:00,
2013-09-13 12:45:00,93.3,70.7,29.90,NNE,30,1.0,1.0,48,0.00,,,0.00,Wunderground v.1.15,2013-09-13 17:45:00,
2013-09-13 12:50:00,93.6,69.7,29.90,NE,55,2.0,2.0,46,0.00,,,0.00,Wunderground v.1.15,2013-09-13 17:50:00,
2013-09-13 13:00:00,94.3,69.7,29.89,NE,51,2.0,2.0,45,0.00,,,0.00,Wunderground v.1.15,2013-09-13 18:00:00,
2013-09-13 13:10:00,94.0,70.1,29.89,ENE,58,2.0,2.0,46,0.00,,,0.00,Wunderground v.1.15,2013-09-13 18:10:00,
2013-09-13 13:15:00,94.0,70.1,29.88,NE,54,1.0,2.0,46,0.00,,,0.00,Wunderground v.1.15,2013-09-13 18:15:00,
2013-09-13 13:20:00,93.9,69.3,29.88,NE,49,0.0,0.0,45,0.00,,,0.00,Wunderground v.1.15,2013-09-13 18:20:00,
2013-09-13 13:25:00,94.8,70.8,29.88,ENE,57,2.0,4.0,46,0.00,,,0.00,Wunderground v.1.15,2013-09-13 18:25:00,
2013-09-13 13:30:00,94.6,70.0,29.87,NE,53,2.0,2.0,45,0.00,,,0.00,Wunderground v.1.15,2013-09-13 18:30:00,
2013-09-13 13:40:00,95.1,70.4,29.87,ENE,71,1.0,7.0,45,0.00,,,0.00,Wunderground v.1.15,2013-09-13 18:40:00,
2013-09-13 13:45:00,95.5,70.1,29.87,NE,47,3.0,7.0,44,0.00,,,0.00,Wunderground v.1.15,2013-09-13 18:45:00,
2013-09-13 13:50:00,95.0,69.0,29.86,NE,47,3.0,3.0,43,0.00,,,0.00,Wunderground v.1.15,2013-09-13 18:50:00,
2013-09-13 13:55:00,95.2,70.5,29.86,NE,34,2.0,6.0,45,0.00,,,0.00,Wunderground v.1.15,2013-09-13 18:55:00,
2013-09-13 14:00:00,95.1,69.8,29.86,NE,46,4.0,6.0,44,0.00,,,0.00,Wunderground v.1.15,2013-09-13 19:00:00,
2013-09-13 14:10:00,95.3,69.9,29.86,NE,53,2.0,2.0,44,0.00,,,0.00,Wunderground v.1.15,2013-09-13 19:10:00,
2013-09-13 14:15:00,95.8,69.0,29.85,NE,51,2.0,2.0,42,0.00,,,0.00,Wunderground v.1.15,2013-09-13 19:15:00,
2013-09-13 14:25:00,95.6,67.4,29.84,NE,53,1.0,2.0,40,0.00,,,0.00,Wunderground v.1.15,2013-09-13 19:25:00,
2013-09-13 14:30:00,96.0,70.6,29.84,ENE,70,2.0,10.0,44,0.00,,,0.00,Wunderground v.1.15,2013-09-13 19:30:00,
2013-09-13 14:35:00,96.5,68.9,29.84,ENE,67,4.0,10.0,41,0.00,,,0.00,Wunderground v.1.15,2013-09-13 19:35:00,
2013-09-13 14:40:00,96.6,67.6,29.84,ENE,65,4.0,4.0,39,0.00,,,0.00,Wunderground v.1.15,2013-09-13 19:40:00,
2013-09-13 14:45:00,96.6,69.0,29.83,ENE,65,3.0,4.0,41,0.00,,,0.00,Wunderground v.1.15,2013-09-13 19:45:00,
2013-09-13 14:55:00,97.1,68.0,29.83,ENE,78,1.0,4.0,39,0.00,,,0.00,Wunderground v.1.15,2013-09-13 19:55:00,
2013-09-13 15:00:00,97.1,69.5,29.83,East,90,3.0,8.0,41,0.00,,,0.00,Wunderground v.1.15,2013-09-13 20:00:00,
2013-09-13 15:10:00,97.6,67.7,29.82,ENE,61,5.0,6.0,38,0.00,,,0.00,Wunderground v.1.15,2013-09-13 20:10:00,
2013-09-13 15:15:00,96.7,68.4,29.81,NE,52,6.0,6.0,40,0.00,,,0.00,Wunderground v.1.15,2013-09-13 20:15:00,
2013-09-13 15:20:00,95.9,69.1,29.82,ENE,57,4.0,4.0,42,0.00,,,0.00,Wunderground v.1.15,2013-09-13 20:20:00,
2013-09-13 15:25:00,95.2,68.5,29.81,ENE,65,3.0,4.0,42,0.00,,,0.00,Wunderground v.1.15,2013-09-13 20:25:00,
2013-09-13 15:30:00,95.7,68.2,29.81,ENE,65,1.0,1.0,41,0.00,,,0.00,Wunderground v.1.15,2013-09-13 20:30:00,
2013-09-13 15:40:00,97.8,68.6,29.80,ENE,72,1.0,5.0,39,0.00,,,0.00,Wunderground v.1.15,2013-09-13 20:40:00,
2013-09-13 15:45:00,97.9,68.0,29.80,ENE,60,2.0,5.0,38,0.00,,,0.00,Wunderground v.1.15,2013-09-13 20:45:00,
2013-09-13 15:50:00,97.8,67.9,29.80,ENE,61,4.0,4.0,38,0.00,,,0.00,Wunderground v.1.15,2013-09-13 20:50:00,
2013-09-13 15:55:00,98.0,68.8,29.79,ENE,59,3.0,5.0,39,0.00,,,0.00,Wunderground v.1.15,2013-09-13 20:55:00,
2013-09-13 16:00:00,98.1,67.4,29.79,NE,50,3.0,5.0,37,0.00,,,0.00,Wunderground v.1.15,2013-09-13 21:00:00,
2013-09-13 16:10:00,97.8,67.9,29.79,ENE,61,3.0,3.0,38,0.00,,,0.00,Wunderground v.1.15,2013-09-13 21:10:00,
2013-09-13 16:20:00,97.8,68.6,29.78,ENE,59,1.0,2.0,39,0.00,,,0.00,Wunderground v.1.15,2013-09-13 21:20:00,
2013-09-13 16:25:00,98.0,67.3,29.78,NE,53,2.0,2.0,37,0.00,,,0.00,Wunderground v.1.15,2013-09-13 21:25:00,
2013-09-13 16:30:00,97.9,67.2,29.78,NE,52,4.0,7.0,37,0.00,,,0.00,Wunderground v.1.15,2013-09-13 21:30:00,
2013-09-13 16:35:00,97.4,67.5,29.79,ENE,77,5.0,8.0,38,0.00,,,0.00,Wunderground v.1.15,2013-09-13 21:35:00,
2013-09-13 16:40:00,96.6,66.8,29.78,ENE,67,5.0,5.0,38,0.00,,,0.00,Wunderground v.1.15,2013-09-13 21:40:00,
2013-09-13 16:50:00,97.3,69.7,29.78,ESE,114,5.0,5.0,41,0.00,,,0.00,Wunderground v.1.15,2013-09-13 21:50:00,
2013-09-13 16:55:00,97.6,66.9,29.78,East,96,4.0,5.0,37,0.00,,,0.00,Wunderground v.1.15,2013-09-13 21:55:00,
2013-09-13 17:00:00,97.7,67.8,29.78,East,96,3.0,3.0,38,0.00,,,0.00,Wunderground v.1.15,2013-09-13 22:00:00,
2013-09-13 17:10:00,97.3,67.4,29.78,ENE,71,2.0,7.0,38,0.00,,,0.00,Wunderground v.1.15,2013-09-13 22:10:00,
2013-09-13 17:15:00,96.9,67.8,29.78,East,82,4.0,7.0,39,0.00,,,0.00,Wunderground v.1.15,2013-09-13 22:15:00,
2013-09-13 17:20:00,96.8,67.8,29.78,ENE,78,4.0,4.0,39,0.00,,,0.00,Wunderground v.1.15,2013-09-13 22:20:00,
2013-09-13 17:25:00,96.9,67.8,29.78,East,82,4.0,4.0,39,0.00,,,0.00,Wunderground v.1.15,2013-09-13 22:25:00,
2013-09-13 17:35:00,96.7,67.7,29.78,ESE,115,4.0,9.0,39,0.00,,,0.00,Wunderground v.1.15,2013-09-13 22:35:00,
2013-09-13 17:40:00,96.4,68.1,29.78,East,90,4.0,4.0,40,0.00,,,0.00,Wunderground v.1.15,2013-09-13 22:40:00,
2013-09-13 17:45:00,96.2,68.0,29.78,East,86,4.0,8.0,40,0.00,,,0.00,Wunderground v.1.15,2013-09-13 22:45:00,
2013-09-13 17:50:00,96.0,67.8,29.78,East,89,4.0,6.0,40,0.00,,,0.00,Wunderground v.1.15,2013-09-13 22:50:00,
2013-09-13 18:00:00,95.5,67.3,29.78,ENE,66,4.0,6.0,40,0.00,,,0.00,Wunderground v.1.15,2013-09-13 23:00:00,
2013-09-13 18:10:00,94.9,66.8,29.78,East,84,4.0,4.0,40,0.00,,,0.00,Wunderground v.1.15,2013-09-13 23:10:00,
2013-09-13 18:20:00,94.4,67.1,29.78,ENE,74,5.0,10.0,41,0.00,,,0.00,Wunderground v.1.15,2013-09-13 23:20:00,
2013-09-13 18:25:00,94.0,67.4,29.78,ENE,73,7.0,10.0,42,0.00,,,0.00,Wunderground v.1.15,2013-09-13 23:25:00,
2013-09-13 18:30:00,93.5,67.0,29.78,East,84,7.0,11.0,42,0.00,,,0.00,Wunderground v.1.15,2013-09-13 23:30:00,
2013-09-13 18:35:00,93.2,66.7,29.78,East,80,6.0,11.0,42,0.00,,,0.00,Wunderground v.1.15,2013-09-13 23:35:00,
2013-09-13 18:45:00,92.8,65.6,29.78,East,85,4.0,5.0,41,0.00,,,0.00,Wunderground v.1.15,2013-09-13 23:45:00,
2013-09-13 18:50:00,92.5,66.1,29.78,East,91,4.0,4.0,42,0.00,,,0.00,Wunderground v.1.15,2013-09-13 23:50:00,
2013-09-13 18:55:00,92.3,66.6,29.78,East,87,4.0,4.0,43,0.00,,,0.00,Wunderground v.1.15,2013-09-13 23:55:00,
2013-09-13 19:00:00,92.0,66.3,29.78,East,82,4.0,7.0,43,0.00,,,0.00,Wunderground v.1.15,2013-09-14 00:00:00,
2013-09-13 19:10:00,91.5,65.8,29.78,ENE,76,4.0,5.0,43,0.00,,,0.00,Wunderground v.1.15,2013-09-14 00:10:00,
2013-09-13 19:15:00,91.3,66.3,29.79,East,80,4.0,5.0,44,0.00,,,0.00,Wunderground v.1.15,2013-09-14 00:15:00,
2013-09-13 19:20:00,91.1,66.8,29.79,East,84,4.0,5.0,45,0.00,,,0.00,Wunderground v.1.15,2013-09-14 00:20:00,
2013-09-13 19:25:00,90.9,66.6,29.79,East,91,4.0,5.0,45,0.00,,,0.00,Wunderground v.1.15,2013-09-14 00:25:00,
2013-09-13 19:35:00,90.4,67.4,29.79,East,86,3.0,4.0,47,0.00,,,0.00,Wunderground v.1.15,2013-09-14 00:35:00,
2013-09-13 19:40:00,90.2,67.2,29.79,East,86,2.0,3.0,47,0.00,,,0.00,Wunderground v.1.15,2013-09-14 00:40:00,
2013-09-13 19:45:00,90.0,67.7,29.79,East,85,1.0,3.0,48,0.00,,,0.00,Wunderground v.1.15,2013-09-14 00:45:00,
2013-09-13 19:50:00,89.8,67.5,29.79,East,86,1.0,1.0,48,0.00,,,0.00,Wunderground v.1.15,2013-09-14 00:50:00,
2013-09-13 20:00:00,89.4,67.7,29.80,East,84,1.0,1.0,49,0.00,,,0.00,Wunderground v.1.15,2013-09-14 01:00:00,
2013-09-13 20:10:00,89.0,67.4,29.80,East,84,0.0,0.0,49,0.00,,,0.00,Wunderground v.1.15,2013-09-14 01:10:00,
2013-09-13 20:20:00,88.6,67.6,29.80,East,84,0.0,0.0,50,0.00,,,0.00,Wunderground v.1.15,2013-09-14 01:20:00,
2013-09-13 20:25:00,88.4,67.4,29.80,East,84,0.0,1.0,50,0.00,,,0.00,Wunderground v.1.15,2013-09-14 01:25:00,
2013-09-13 20:30:00,88.2,67.8,29.81,East,84,0.0,0.0,51,0.00,,,0.00,Wunderground v.1.15,2013-09-14 01:30:00,
2013-09-13 20:35:00,88.0,67.6,29.81,East,84,0.0,4.0,51,0.00,,,0.00,Wunderground v.1.15,2013-09-14 01:35:00,
2013-09-13 20:45:00,87.8,67.4,29.81,East,84,0.0,0.0,51,0.00,,,0.00,Wunderground v.1.15,2013-09-14 01:45:00,
2013-09-13 20:50:00,87.6,67.8,29.82,East,84,0.0,0.0,52,0.00,,,0.00,Wunderground v.1.15,2013-09-14 01:50:00,
2013-09-13 20:55:00,87.5,67.7,29.82,East,84,0.0,0.0,52,0.00,,,0.00,Wunderground v.1.15,2013-09-14 01:55:00,
2013-09-13 21:00:00,87.4,67.6,29.82,East,84,0.0,1.0,52,0.00,,,0.00,Wunderground v.1.15,2013-09-14 02:00:00,
2013-09-13 21:10:00,87.2,67.4,29.82,East,83,0.0,0.0,52,0.00,,,0.00,Wunderground v.1.15,2013-09-14 02:10:00,
2013-09-13 21:15:00,87.2,67.4,29.82,East,83,0.0,2.0,52,0.00,,,0.00,Wunderground v.1.15,2013-09-14 02:15:00,
2013-09-13 21:20:00,87.0,67.2,29.83,East,83,0.0,0.0,52,0.00,,,0.00,Wunderground v.1.15,2013-09-14 02:20:00,
2013-09-13 21:30:00,86.8,67.6,29.83,East,83,0.0,0.0,53,0.00,,,0.00,Wunderground v.1.15,2013-09-14 02:30:00,
2013-09-13 21:35:00,86.6,67.4,29.83,East,83,0.0,0.0,53,0.00,,,0.00,Wunderground v.1.15,2013-09-14 02:35:00,
2013-09-13 21:40:00,86.6,67.4,29.83,East,81,1.0,1.0,53,0.00,,,0.00,Wunderground v.1.15,2013-09-14 02:40:00,
2013-09-13 21:45:00,86.6,67.4,29.84,NE,36,3.0,6.0,53,0.00,,,0.00,Wunderground v.1.15,2013-09-14 02:45:00,
2013-09-13 21:50:00,86.8,67.6,29.84,NE,46,5.0,6.0,53,0.00,,,0.00,Wunderground v.1.15,2013-09-14 02:50:00,
2013-09-13 22:00:00,86.6,68.0,29.84,ENE,59,6.0,6.0,54,0.00,,,0.00,Wunderground v.1.15,2013-09-14 03:00:00,
2013-09-13 22:10:00,86.3,68.8,29.85,NE,51,4.0,5.0,56,0.00,,,0.00,Wunderground v.1.15,2013-09-14 03:10:00,
2013-09-13 22:15:00,86.1,68.6,29.84,NE,53,4.0,7.0,56,0.00,,,0.00,Wunderground v.1.15,2013-09-14 03:15:00,
2013-09-13 22:20:00,85.9,68.9,29.84,East,92,6.0,14.0,57,0.00,,,0.00,Wunderground v.1.15,2013-09-14 03:20:00,
2013-09-13 22:25:00,85.7,68.7,29.85,NE,50,8.0,14.0,57,0.00,,,0.00,Wunderground v.1.15,2013-09-14 03:25:00,
2013-09-13 22:30:00,85.5,69.0,29.85,ENE,76,6.0,8.0,58,0.00,,,0.00,Wunderground v.1.15,2013-09-14 03:30:00,
2013-09-13 22:40:00,85.1,69.2,29.85,ENE,60,5.0,5.0,59,0.00,,,0.00,Wunderground v.1.15,2013-09-14 03:40:00,
2013-09-13 22:45:00,84.9,69.0,29.85,ENE,72,5.0,5.0,59,0.00,,,0.00,Wunderground v.1.15,2013-09-14 03:45:00,
2013-09-13 22:50:00,84.7,69.3,29.85,ENE,67,5.0,7.0,60,0.00,,,0.00,Wunderground v.1.15,2013-09-14 03:50:00,
2013-09-13 22:55:00,84.6,69.2,29.85,ENE,66,5.0,7.0,60,0.00,,,0.00,Wunderground v.1.15,2013-09-14 03:55:00,
2013-09-13 23:00:00,84.4,69.0,29.85,ENE,74,6.0,6.0,60,0.00,,,0.00,Wunderground v.1.15,2013-09-14 04:00:00,
2013-09-13 23:05:00,84.3,69.4,29.85,East,84,5.0,8.0,61,0.00,,,0.00,Wunderground v.1.15,2013-09-14 04:05:00,
2013-09-13 23:10:00,84.3,69.4,29.85,ENE,77,3.0,8.0,61,0.00,,,0.00,Wunderground v.1.15,2013-09-14 04:10:00,
2013-09-13 23:15:00,84.1,69.2,29.85,ENE,76,4.0,8.0,61,0.00,,,0.00,Wunderground v.1.15,2013-09-14 04:15:00,
2013-09-13 23:20:00,84.1,69.2,29.85,ENE,73,5.0,5.0,61,0.00,,,0.00,Wunderground v.1.15,2013-09-14 04:20:00,
2013-09-13 23:25:00,84.0,69.6,29.85,ENE,72,5.0,5.0,62,0.00,,,0.00,Wunderground v.1.15,2013-09-14 04:25:00,
2013-09-13 23:30:00,83.9,69.5,29.85,ENE,69,6.0,6.0,62,0.00,,,0.00,Wunderground v.1.15,2013-09-14 04:30:00,
2013-09-13 23:35:00,83.9,69.5,29.85,ENE,73,6.0,8.0,62,0.00,,,0.00,Wunderground v.1.15,2013-09-14 04:35:00,
2013-09-13 23:40:00,83.8,69.4,29.85,ENE,69,6.0,7.0,62,0.00,,,0.00,Wunderground v.1.15,2013-09-14 04:40:00,
2013-09-13 23:50:00,83.6,69.2,29.85,ENE,75,5.0,6.0,62,0.00,,,0.00,Wunderground v.1.15,2013-09-14 04:50:00,
2013-09-13 23:55:00,83.5,69.6,29.85,ENE,74,5.0,7.0,63,0.00,,,0.00,Wunderground v.1.15,2013-09-14 04:55:00,